User: anonymous   Login
Location: Melbourne
(37.8170°S, 144.9670°E)
Time: 07:53:05
(UTC+11:00)
Language:

ADEOS Rocket - Orbit

View from above orbital plane
View from above orbital plane
View from above satellite
View from above satellite

Ground track
Ground track

The orbit data is extracted from the following two-line orbital elements,

1 24279U 96046C   15085.56875144  .00000028  00000-0  81078-4 0  9996
2 24279 098.7076 122.5727 0299947 204.6408 320.8231 13.47018661914700
Epoch (UTC): 26 March 2015 13:39:00
Eccentricity: 0.0299947
inclination: 98.7076°
perigee height: 859 km
apogee height: 1307 km
right ascension of ascending node: 122.5727°
argument of perigee: 204.6408°
revolutions per day: 13.47018661
mean anomaly at epoch: 320.8231°
orbit number at epoch: 91470

The dashed part of the orbit path shows where the satellite is in the earth's shadow,  

DLR